Tracking 29892 objects as of 21-Nov-2024
HD Live streaming from Space Station
objects crossing your sky now

STARLINK-1266

Track STARLINK-1266 now!
10-day predictions
STARLINK-1266 is classified as:


NORAD ID: 45383
Int'l Code: 2020-019Z
Perigee: 553.4 km
Apogee: 555.2 km
Inclination: 53.1 °
Period: 95.6 minutes
Semi major axis: 6925 km
RCS: Unknown
Launch date: March 18, 2020
Source: United States (US)
Launch site: AIR FORCE EASTERN TEST RANGE (AFETR)
Your satellite tracking list
Your tracking list is empty




NASA's NSSDC Master Catalog

Two Line Element Set (TLE):
1 45383U 20019Z   24325.83322612  .00006792  00000-0  47432-3 0  9995
2 45383  53.0534 113.8417 0001306  97.3255 262.7882 15.06408098258585
Source of the keplerian elements: AFSPC